IW9GDC-13 Weather Reports


Display with metric or nautical units.
time (UTC)temp
F
wind
direction
speed
MPH
gust
MPH
rain 1hr
in
rain 24hr
in
rain mn
in
humidity
%
barometer
mb
20260502191517 61 293 1.0 6.0 0.00 0.00 0.00 52 1022.3
20260502191017 60 270 3.0 11.0 0.00 0.00 0.00 52 1022.3
20260502190517 60 45 2.0 5.0 0.00 0.00 0.00 51 1022.1
20260502190037 61 338 3.0 7.0 0.00 0.00 0.00 51 1022.1
20260502185538 61 338 4.0 9.0 0.00 0.00 0.00 50 1022.1
20260502185017 61 338 6.0 10.0 0.00 0.00 0.00 50 1022.0
20260502184517 61 315 4.0 12.0 0.00 0.00 0.00 50 1021.9
20260502184037 61 338 5.0 15.0 0.00 0.00 0.00 50 1021.8
20260502183517 61 315 4.0 11.0 0.00 0.00 0.00 50 1021.8
20260502183016 61 315 5.0 12.0 0.00 0.00 0.00 50 1021.7
20260502182517 61 315 6.0 12.0 0.00 0.00 0.00 49 1021.5
20260502182019 61 45 3.0 6.0 0.00 0.00 0.00 49 1021.5
20260502181517 61 315 7.0 17.0 0.00 0.00 0.00 48 1021.5
20260502181016 61 270 7.0 14.0 0.00 0.00 0.00 47 1021.4
20260502180517 61 270 7.0 15.0 0.00 0.00 0.00 48 1021.4
20260502170517 62 270 9.0 18.0 0.00 0.00 0.00 43 1020.8
20260502164016 63 270 5.0 11.0 0.00 0.00 0.00 44 1020.7
20260502163516 63 315 5.0 13.0 0.00 0.00 0.00 44 1020.7
20260502163017 63 338 5.0 20.0 0.00 0.00 0.00 43 1020.7
20260502162516 63 293 6.0 12.0 0.00 0.00 0.00 43 1020.6
20260502162017 63 293 7.0 16.0 0.00 0.00 0.00 44 1020.6
20260502161516 63 270 9.0 16.0 0.00 0.00 0.00 43 1020.5
20260502161136 64 270 8.0 15.0 0.00 0.00 0.00 43 1020.5
20260502160516 64 270 7.0 16.0 0.00 0.00 0.00 43 1020.4
20260502152016 65 270 6.0 15.0 0.00 0.00 0.00 41 1020.4
20260502151516 65 270 6.0 12.0 0.00 0.00 0.00 41 1020.4
20260502151016 65 270 8.0 13.0 0.00 0.00 0.00 39 1020.4
20260502150516 65 270 8.0 16.0 0.00 0.00 0.00 38 1020.4
20260502130516 65 23 8.0 13.0 0.00 0.00 0.00 39 1021.0
20260502123518 65 45 6.0 12.0 0.00 0.00 0.00 39 1021.0
20260502123018 65 45 7.0 15.0 0.00 0.00 0.00 40 1021.1
20260502122518 65 68 8.0 18.0 0.00 0.00 0.00 39 1021.0
20260502122018 65 68 8.0 18.0 0.00 0.00 0.00 38 1021.1
20260502121518 64 45 10.0 18.0 0.00 0.00 0.00 41 1021.1
20260502121018 65 23 8.0 17.0 0.00 0.00 0.00 41 1021.1
20260502120518 65 45 9.0 16.0 0.00 0.00 0.00 41 1021.0
20260502115518 65 23 9.0 16.0 0.00 0.00 0.00 40 1021.0
20260502115018 65 23 5.0 14.0 0.00 0.00 0.00 40 1021.0
20260502114518 64 23 10.0 22.0 0.00 0.00 0.00 40 1020.9
20260502114018 65 0 9.0 15.0 0.00 0.00 0.00 39 1021.0
20260502113518 64 23 6.0 13.0 0.00 0.00 0.00 39 1021.0
20260502113018 64 45 8.0 18.0 0.00 0.00 0.00 37 1021.0
20260502112517 64 68 6.0 15.0 0.00 0.00 0.00 38 1021.0
20260502112018 64 23 7.0 16.0 0.00 0.00 0.00 40 1021.0
20260502111518 63 45 10.0 20.0 0.00 0.00 0.00 40 1020.9
20260502111017 64 45 12.0 23.0 0.00 0.00 0.00 38 1021.0
20260502110518 64 45 10.0 22.0 0.00 0.00 0.00 38 1021.0
20260502110017 64 45 12.0 19.0 0.00 0.00 0.00 40 1021.0
20260502105518 64 45 9.0 20.0 0.00 0.00 0.00 39 1021.1
20260502105018 64 68 8.0 21.0 0.00 0.00 0.00 39 1021.1
20260502104518 64 68 8.0 18.0 0.00 0.00 0.00 36 1021.3
20260502104017 64 90 7.0 18.0 0.00 0.00 0.00 36 1021.2
20260502103517 64 0 6.0 15.0 0.00 0.00 0.00 37 1021.2
20260502103017 64 45 12.0 21.0 0.00 0.00 0.00 38 1021.2
20260502102517 64 45 10.0 22.0 0.00 0.00 0.00 38 1021.2
20260502102018 64 45 10.0 20.0 0.00 0.00 0.00 39 1021.3
20260502101517 64 68 8.0 18.0 0.00 0.00 0.00 39 1021.2
20260502101018 64 23 9.0 19.0 0.00 0.00 0.00 38 1021.3
20260502100538 64 23 10.0 18.0 0.00 0.00 0.00 39 1021.3
20260502091057 63 45 11.0 22.0 0.00 0.00 0.00 41 1021.2
20260502090517 63 23 9.0 16.0 0.00 0.00 0.00 41 1021.3
20260502071517 62 23 6.0 11.0 0.00 0.00 0.00 52 1021.0
20260502071017 63 0 4.0 11.0 0.00 0.00 0.00 51 1021.0
20260502070517 62 0 5.0 14.0 0.00 0.00 0.00 52 1020.9
20260502070017 62 90 4.0 10.0 0.00 0.00 0.00 51 1020.9
20260502065517 62 68 5.0 13.0 0.00 0.00 0.00 50 1021.0
20260502065037 62 90 4.0 12.0 0.00 0.00 0.00 49 1021.0
20260502064517 62 90 5.0 12.0 0.00 0.00 0.00 50 1020.9
20260502064017 62 90 5.0 9.0 0.00 0.00 0.00 49 1020.9
20260502063557 62 248 4.0 11.0 0.00 0.00 0.00 50 1020.8
20260502063037 62 68 3.0 12.0 0.00 0.00 0.00 49 1020.8
20260502062517 62 45 5.0 10.0 0.00 0.00 0.00 49 1020.8
20260502062017 62 293 2.0 6.0 0.00 0.00 0.00 48 1020.8
20260502061517 61 0 3.0 6.0 0.00 0.00 0.00 49 1020.8
20260502061017 61 23 3.0 7.0 0.00 0.00 0.00 49 1020.7
20260502060517 61 0 4.0 11.0 0.00 0.00 0.00 49 1020.6
20260502060037 61 0 3.0 7.0 0.00 0.00 0.00 49 1020.6
20260502055517 61 23 4.0 9.0 0.00 0.02 0.00 50 1020.6
20260502055017 60 23 6.0 13.0 0.00 0.02 0.00 50 1020.6
20260502054537 60 23 9.0 16.0 0.00 0.02 0.00 49 1020.6
20260502054017 60 45 5.0 13.0 0.00 0.02 0.00 49 1020.4
20260502053517 60 45 5.0 12.0 0.00 0.02 0.00 49 1020.4
20260502053037 60 23 3.0 9.0 0.00 0.03 0.00 49 1020.4
20260502052517 60 23 4.0 10.0 0.00 0.03 0.00 50 1020.3
20260502052017 60 23 6.0 12.0 0.00 0.03 0.00 51 1020.4
20260502051517 59 23 4.0 9.0 0.00 0.03 0.00 51 1020.4
20260502051017 59 45 5.0 11.0 0.00 0.03 0.00 51 1020.3
20260502050517 59 45 4.0 11.0 0.00 0.03 0.00 51 1020.3
20260502050017 59 45 4.0 7.0 0.00 0.03 0.00 50 1020.3
20260502045517 59 45 6.0 11.0 0.00 0.03 0.00 50 1020.3
20260502045016 58 45 6.0 11.0 0.00 0.03 0.00 50 1020.3
20260502044517 58 45 3.0 9.0 0.00 0.03 0.00 49 1020.3
20260502044016 58 45 4.0 9.0 0.00 0.04 0.00 49 1020.3
20260502043516 57 45 2.0 5.0 0.00 0.08 0.00 49 1020.3
20260502043017 57 45 3.0 9.0 0.00 0.15 0.00 48 1020.2
20260502042536 57 45 4.0 7.0 0.00 0.19 0.00 48 1020.2
20260502042037 57 68 5.0 12.0 0.00 0.19 0.00 48 1020.3
20260502041517 57 45 3.0 10.0 0.00 0.20 0.00 48 1020.2
20260502041016 57 23 4.0 11.0 0.00 0.20 0.00 47 1020.2
20260502040516 57 23 3.0 6.0 0.00 0.22 0.00 47 1020.2
20260502040017 57 23 2.0 7.0 0.00 0.22 0.00 47 1020.2
20260502035516 57 45 4.0 7.0 0.00 0.22 0.00 46 1020.2
20260502035016 57 23 3.0 6.0 0.00 0.22 0.00 47 1020.2
20260502034517 57 45 3.0 7.0 0.00 0.22 0.00 46 1020.3
20260502034017 57 23 3.0 7.0 0.00 0.22 0.00 47 1020.3
20260502033517 57 23 3.0 9.0 0.00 0.22 0.00 48 1020.3
20260502033017 57 23 3.0 6.0 0.00 0.22 0.00 48 1020.2
20260502032517 57 68 2.0 6.0 0.00 0.22 0.00 49 1020.3
20260502032016 57 23 2.0 5.0 0.00 0.22 0.00 48 1020.3
20260502031516 57 68 1.0 5.0 0.00 0.22 0.00 48 1020.4
20260502031017 57 45 3.0 6.0 0.00 0.22 0.00 47 1020.3
20260502030536 57 45 3.0 6.0 0.00 0.22 0.00 47 1020.4
20260502030016 57 45 3.0 5.0 0.00 0.22 0.00 48 1020.3
20260502025516 57 45 4.0 7.0 0.00 0.22 0.00 49 1020.3
20260502025016 57 45 4.0 12.0 0.00 0.22 0.00 50 1020.4
20260502024516 57 23 4.0 7.0 0.00 0.22 0.00 51 1020.2
20260502024016 57 23 3.0 6.0 0.00 0.22 0.00 51 1020.2
20260502023516 57 45 4.0 6.0 0.00 0.22 0.00 51 1020.2
20260502023016 57 68 2.0 5.0 0.00 0.22 0.00 51 1020.3
20260502022536 57 23 3.0 6.0 0.00 0.22 0.00 51 1020.4
20260502022016 57 23 2.0 5.0 0.00 0.22 0.00 51 1020.3
20260502021516 57 45 3.0 5.0 0.00 0.22 0.00 52 1020.4
20260502021057 57 45 2.0 5.0 0.00 0.22 0.00 53 1020.4
20260502020516 56 45 3.0 5.0 0.00 0.22 0.00 55 1020.4
20260502020016 57 45 2.0 3.0 0.00 0.22 0.00 57 1020.4
20260502015516 57 23 2.0 4.0 0.00 0.22 0.00 56 1020.3
20260502015016 57 45 3.0 6.0 0.00 0.22 0.00 56 1020.4
20260502014516 57 45 1.0 4.0 0.00 0.22 0.00 54 1020.3
20260502014016 57 23 2.0 4.0 0.00 0.22 0.00 53 1020.3
20260502013516 57 45 1.0 2.0 0.00 0.22 0.00 52 1020.3
20260502013016 57 23 2.0 3.0 0.00 0.22 0.00 52 1020.3
20260502012516 58 45 2.0 3.0 0.00 0.22 0.00 52 1020.2
20260502012016 58 23 2.0 5.0 0.00 0.22 0.00 53 1020.2
20260502011516 58 45 3.0 6.0 0.00 0.22 0.00 51 1020.2
20260502011016 58 45 4.0 9.0 0.00 0.22 0.00 51 1020.3
20260502010516 58 45 3.0 6.0 0.00 0.22 0.00 51 1020.3
20260502010016 59 0 4.0 11.0 0.00 0.22 0.00 50 1020.2
20260502005516 59 23 3.0 6.0 0.00 0.22 0.00 50 1020.2
20260502005016 59 0 4.0 7.0 0.00 0.22 0.00 49 1020.2
20260502004516 59 23 5.0 12.0 0.00 0.22 0.00 49 1020.2
20260502004016 59 23 3.0 7.0 0.00 0.22 0.00 51 1020.1
20260502003516 59 23 3.0 7.0 0.00 0.22 0.00 51 1020.0
20260502003016 59 23 4.0 7.0 0.00 0.22 0.00 51 1020.0
20260502002516 59 23 3.0 7.0 0.00 0.22 0.00 50 1020.0
20260502002016 59 23 2.0 7.0 0.00 0.22 0.00 50 1019.9
20260502001516 59 23 4.0 6.0 0.00 0.22 0.00 51 1019.9
20260502001036 58 23 3.0 6.0 0.00 0.22 0.00 52 1020.0
20260502000516 58 0 2.0 5.0 0.00 0.22 0.00 52 1020.1
20260502000036 58 45 2.0 4.0 0.00 0.22 0.00 53 1020.1
20260501235516 58 45 2.0 4.0 0.00 0.22 0.00 54 1020.1
20260501235016 58 45 2.0 5.0 0.00 0.22 0.00 55 1020.0
20260501234536 59 45 2.0 4.0 0.00 0.22 0.00 55 1020.0
20260501234016 59 45 2.0 7.0 0.00 0.22 0.00 55 1020.0
20260501233536 59 45 2.0 4.0 0.00 0.22 0.00 57 1020.0
20260501233018 59 23 2.0 4.0 0.00 0.22 0.00 57 1020.1
20260501232518 59 45 2.0 4.0 0.00 0.22 0.00 57 1020.1
20260501232018 59 45 2.0 5.0 0.00 0.22 0.00 57 1020.2
20260501231518 59 45 2.0 5.0 0.00 0.22 0.00 58 1020.2
20260501231018 59 45 2.0 5.0 0.00 0.22 0.00 57 1020.3
20260501230518 59 23 2.0 5.0 0.00 0.22 0.00 57 1020.3
20260501230018 60 45 2.0 5.0 0.00 0.22 0.00 57 1020.4
20260501225518 60 45 3.0 6.0 0.00 0.22 0.00 57 1020.4
20260501225018 60 23 3.0 9.0 0.00 0.22 0.00 57 1020.5